THOR ABLESTAR DEB, 6842

Orbit data source: Space-Track

THOR ABLESTAR DEB, 6842 is space debris in LEO originally from a launch on Thu, 29 Jun 1961 UTC launched from the Air Force Eastern Test Range (AFETR). Debris objects in space refer to the collection of defunct objects orbiting the Earth. Examples of debris include non-operational satellites, rocket bodies, and fragments generated from explosions, collisions, or faulty payload assembly.

Loading next visibility...
Identifier
6842, 1961-015KP
Orbit
LEO
Country
Flag of USUS
Related business
Manufacturer
Unknown
Mission
Spacecraft
Bus & Motor
Unknown
Mass
Unknown
Launch date (UTC)
1961-06-29 (65 years ago)
Launch vehicle
Unknown
Launch site
Air Force Eastern Test Range (AFETR)
Object type
Payload
Rocket body
Debris
Shape & HBR
Unknown shape, 0.1 m
Radar Cross Section
Medium (>0.1 m² and <1 m²)

Expand to show TLE details & history
Last TLE update: 1 day ago

TLE from 1 day ago
0 THOR ABLESTAR DEB
1 06842U 61015KP  26250.74717920 -.00000168  00000-0 -38342-3 0  9995
2 06842  66.7348 342.5925 0647808 123.0005 321.6824 12.45773396342709
Epoch: 2026-09-07T17:55Z
TLE epoch observation values (Epoch: 2026-09-07T17:55:56.282Z)
Latitude
64.8114°
Longitude
152.21147°
Altitude
1,106.727 km
Speed
7.483 km/s
True Right ascension
03h 12m 04s
True Declination
64° 41' 06"
Sunlit
Object was in daylight at epoch
Visualization orbit readout
Latitude
Unknown
Longitude
Unknown
Altitude
Unknown
Speed
Unknown
Apparent Right ascension
Unknown
Apparent Declination
Unknown
Sunlit
N/A
Visualization observer readout
Local Sidereal Time
10:41:25
Azimuth
Unknown
Elevation
Unknown
Doppler factor
Unknown
Orbital elements
Apogee altitude
1,989.833 km
Perigee altitude
971.625 km
Semi-major axis
7,858.866 km
Eccentricity
0.06478
Inclination
66.7348°
RAAN
342.5925°
Arg. of periapsis
123.0005°
True anomaly
316.77451°
Mean anomaly
321.6824°
Eccentric anomaly
319.26007°
Mean motion
3.11532 °/min
Orbital period
115.56 mins
BSTAR
-0.00038342
Loading maneuver chart data...
Computing Atmospheric mass density...

Documentation

Showing up to 5 results
|